Location: Arbon
(43.0005°N, 0.7472°E)
Time: 16:40:03
(UTC+00:00)

CZ-2C R/B - Pass Details

Date: 07 August 2020
Orbit: 501 x 568 km, 97.7° (Epoch: 23 September)

Event Time Altitude Azimuth Distance (km) Brightness Sun altitude
Rises 03:21:11 0° 13° (NNE) 2,714 7.3 -15.3°
Reaches altitude 10° 03:23:20 10° 15° (NNE) 1,806 6.3 -15.0°
Maximum altitude 03:27:14 78° 102° (ESE) 547 2.8 -14.4°
Enters shadow 03:30:16 16° 188° (S) 1,438 4.5 -14.0°
